Wind_Speed
5 3 3 4 6 5 6 9 10 9 9 10 9 6 6 6 6 5 6 7 8 5 5 5 5 6 6 5 4 5 5 4 3 3 1 3 5 5 5 5 5 5 5 6 8 10 10 12 14 13 12 14 17 19 20 20 20 21 21 20 18 20 21 22 21 20 18 16 15 16 17 18 18 18 19 20 20 20 22 24 26 27 26 25 24 24 25
6 3 3 6 6 6 6 7 8 10 9 10 10 7 6 8 9 9 9 8 6 4 4 5 5 6 6 5 5 5 5 5 4 2 1 3 5 5 5 5 5 5 6 7 9 10 11 13 14 12 12 14 17 18 19 20 22 22 22 21 18 18 20 22 21 20 19 17 16 16 16 17 18 18 18 19 20 20 21 24 27 27 25 24 24 23 23
7 5 2 7 9 9 8 7 6 10 12 11 10 9 8 10 9 8 9 9 4 1 3 5 4 4 5 6 6 5 5 5 4 1 2 4 5 5 5 6 5 6 6 7 9 10 11 12 13 13 15 16 17 19 19 20 22 23 22 22 20 18 19 21 21 20 19 17 16 16 16 16 17 17 17 18 19 20 20 22 25 26 25 24 25 24 24
5 6 2 9 11 12 12 10 7 7 10 8 6 6 6 8 9 8 7 7 4 3 3 4 3 3 5 5 6 5 4 4 4 0 3 4 5 6 6 6 5 5 5 6 8 9 10 11 13 15 17 18 19 20 20 21 22 23 24 24 21 18 19 20 20 20 19 18 17 17 16 16 16 17 17 17 18 19 20 21 23 24 24 24 24 24 23
4 6 2 8 8 9 7 5 5 3 8 9 7 6 5 6 9 8 5 4 5 3 3 5 4 3 4 3 5 4 3 3 2 2 4 5 6 6 6 6 6 6 6 7 7 8 10 12 14 17 18 18 19 20 20 21 22 22 24 24 21 19 19 20 20 20 19 18 18 17 16 15 16 16 16 17 17 18 19 20 20 21 21 22 22 22 22
4 6 3 5 7 5 2 5 3 7 11 13 11 8 8 7 6 5 5 4 3 4 5 5 3 1 1 2 4 4 4 3 1 2 4 5 5 5 5 5 5 6 7 8 9 9 11 13 15 16 16 17 18 19 20 22 22 21 22 21 19 19 21 21 20 20 20 19 19 19 17 15 15 15 15 16 17 18 19 19 19 19 20 20 20 20 21
2 3 4 5 3 2 4 1 9 14 15 16 16 13 10 9 9 8 8 6 5 5 5 4 3 2 2 5 5 3 2 3 2 2 4 5 5 5 5 4 6 7 9 10 10 10 12 14 15 15 16 18 19 19 20 22 22 20 20 19 19 21 21 21 20 20 20 20 20 20 19 18 16 15 15 15 15 16 17 18 18 19 19 19 20 20 21
0 3 4 2 3 2 2 4 7 8 9 11 14 11 8 6 5 6 6 5 5 4 3 1 2 3 4 5 4 1 2 1 3 4 3 4 4 4 3 5 7 9 10 10 10 11 13 16 17 17 18 20 20 21 21 21 21 21 20 20 21 21 20 19 20 20 20 20 20 20 20 19 18 17 16 15 14 13 14 16 17 18 18 19 20 20 21
2 3 3 3 3 2 4 3 2 1 2 5 7 6 3 4 2 4 5 5 4 3 4 4 5 4 5 4 3 3 4 3 2 3 2 4 5 5 5 7 9 11 13 13 13 14 16 17 17 18 21 21 21 22 22 21 21 21 21 21 21 20 18 19 21 21 20 19 20 21 21 20 19 18 17 17 16 14 13 14 15 15 17 19 19 19 20
2 5 4 3 3 0 4 4 3 4 3 7 8 7 1 5 3 3 6 5 4 5 5 5 5 5 5 4 5 6 6 4 1 3 6 8 8 9 9 10 11 14 16 16 15 15 16 18 20 21 22 21 21 22 21 21 22 22 21 21 19 18 19 21 22 20 19 19 20 21 21 20 19 18 17 17 17 16 14 14 15 13 12 15 17 18 19
2 5 4 2 2 3 5 5 4 5 3 7 7 6 1 5 3 4 6 5 5 5 5 4 5 5 3 2 5 5 6 6 3 3 6 8 9 10 11 11 10 12 16 17 17 18 19 20 21 22 22 22 22 21 20 21 22 22 21 20 18 18 21 22 21 19 17 18 19 20 21 20 19 18 17 16 15 15 14 14 15 13 11 13 16 17 18
1 4 3 1 2 2 4 4 5 5 1 6 6 3 4 5 2 4 7 6 4 4 5 5 5 4 1 3 5 5 6 6 5 4 4 5 8 10 12 12 11 14 17 18 19 20 21 21 21 21 23 23 22 21 21 21 21 21 22 22 20 20 21 21 21 19 17 17 18 19 19 20 19 18 17 14 12 12 12 12 13 15 14 14 16 16 16
3 5 3 1 1 2 3 3 5 5 4 6 4 3 6 4 2 4 6 6 4 4 5 4 2 1 4 5 5 5 5 5 5 5 5 8 9 10 11 11 12 14 18 19 19 20 22 21 20 22 23 23 22 22 22 21 21 22 23 22 22 22 22 22 22 21 18 17 17 18 18 18 18 17 16 14 12 12 13 13 12 13 14 15 15 16 15
2 3 3 1 1 4 4 3 3 5 4 2 3 5 3 4 5 5 5 5 3 4 3 1 1 4 5 4 5 5 4 3 3 5 8 10 11 11 11 12 13 15 17 19 20 21 22 21 21 23 23 22 22 22 21 21 22 24 23 23 23 22 22 21 22 22 20 17 17 18 18 17 18 18 15 13 13 13 13 13 11 11 13 14 15 16 16
2 3 3 2 2 5 3 1 3 5 3 5 4 2 3 3 5 5 4 2 3 4 2 2 4 5 5 5 5 5 4 3 4 5 8 9 9 10 11 12 14 16 17 18 20 21 22 22 22 23 22 22 21 21 20 22 25 25 24 23 23 22 20 20 21 22 21 19 18 18 17 16 17 17 15 14 13 12 12 12 11 11 11 12 14 16 16
2 2 1 3 5 4 1 4 3 1 2 5 5 5 3 1 3 4 3 1 1 3 2 2 4 4 4 5 5 4 4 5 4 5 7 7 8 10 11 13 15 15 16 18 20 22 23 23 23 23 22 21 21 21 22 24 26 25 24 23 22 21 20 20 20 21 22 21 20 18 16 16 15 15 13 12 12 11 11 11 10 11 11 11 12 13 15
2 4 4 4 4 1 4 5 5 4 4 5 6 7 4 2 2 3 3 1 2 1 1 1 3 2 4 5 5 4 5 5 4 5 6 7 8 10 12 14 15 16 16 18 20 21 23 24 24 24 23 21 21 22 24 25 25 24 23 22 21 20 20 20 20 20 23 23 21 17 15 14 14 14 12 10 10 9 9 9 10 11 12 12 11 12 12
4 4 2 3 4 5 5 5 5 6 7 5 5 6 4 3 3 3 3 3 3 0 3 2 2 4 5 5 5 5 4 5 5 5 6 7 9 12 13 14 16 17 17 18 19 20 23 25 25 24 24 22 21 23 24 25 24 23 22 21 21 20 20 20 19 20 22 22 19 15 14 14 14 14 12 11 10 9 7 7 8 11 12 12 11 10 10
4 2 2 4 6 6 6 6 5 5 6 5 4 5 4 3 3 4 3 4 2 1 2 1 3 6 5 5 5 5 4 5 6 5 5 8 11 13 13 14 16 16 16 17 19 20 22 25 26 25 24 24 23 24 25 24 24 23 21 19 20 20 21 20 19 19 19 19 16 15 16 15 15 14 13 12 11 10 7 5 6 9 11 12 11 9 8
3 3 4 4 6 5 5 6 5 5 6 5 4 4 3 3 5 3 2 3 2 1 2 3 5 6 5 4 3 4 4 5 5 5 6 9 13 15 15 15 15 15 15 16 18 20 22 24 25 25 24 24 25 24 24 24 23 22 21 19 19 20 20 20 19 18 18 16 16 16 17 17 16 16 14 13 12 11 7 6 6 8 10 12 12 10 9
4 3 4 6 7 4 2 4 5 5 6 6 4 3 5 6 5 2 1 2 2 3 4 4 4 4 4 3 3 3 5 5 5 5 8 11 14 15 17 16 14 14 15 17 18 20 21 23 25 24 24 25 25 25 24 23 22 21 20 19 19 20 20 18 17 17 17 15 15 16 17 17 17 15 13 12 12 10 6 4 6 8 10 12 12 11 10
3 3 3 5 6 3 2 4 5 5 6 6 5 5 5 4 4 2 1 4 6 6 6 5 2 1 2 4 4 4 5 5 5 7 10 13 14 16 17 16 14 15 16 17 18 20 22 23 24 24 25 25 25 25 24 22 21 20 19 19 19 19 19 17 17 17 16 16 16 16 15 16 17 15 12 10 10 8 6 5 7 9 11 12 12 12 13
4 5 5 4 5 4 4 4 5 5 5 5 6 6 5 4 3 2 1 4 6 7 7 5 4 3 2 5 5 4 5 6 6 8 11 13 15 16 17 16 15 15 16 17 18 20 22 23 24 24 25 25 25 24 24 23 21 20 19 19 19 20 19 18 17 16 16 17 17 15 13 13 15 15 13 10 9 8 7 7 7 9 12 14 14 14 15
3 3 4 4 5 5 4 4 5 4 4 6 6 4 4 2 3 2 2 2 2 3 5 5 4 2 4 7 7 5 5 7 8 11 13 14 15 16 16 16 15 15 16 17 18 20 21 22 23 24 24 24 24 24 24 23 22 21 20 19 19 20 20 19 18 15 15 17 17 14 12 12 14 14 13 11 9 8 7 5 4 6 10 13 14 13 14
4 4 4 4 6 5 5 5 5 4 5 6 4 2 1 2 4 3 3 4 5 4 3 3 5 6 8 10 10 7 6 8 11 12 13 15 16 16 17 16 16 15 16 17 19 20 21 21 23 23 23 24 24 25 25 24 22 21 21 19 19 20 20 19 18 17 15 15 16 15 13 13 14 13 12 11 10 9 9 7 5 6 9 12 13 14 14
5 5 5 6 5 4 4 5 3 2 4 5 3 0 3 4 2 3 6 6 5 5 4 3 6 10 11 12 12 9 8 10 13 13 13 15 16 17 17 17 15 16 17 17 18 19 19 21 22 23 22 24 25 26 25 24 22 21 21 19 19 19 19 17 18 18 16 15 15 15 14 15 14 13 13 12 11 11 11 9 8 9 11 12 13 14 14
5 6 7 7 5 3 2 3 3 3 2 2 2 2 4 4 4 7 8 7 6 6 7 7 9 11 12 13 12 10 10 12 13 13 14 15 16 17 18 16 14 15 16 16 17 18 19 20 22 22 22 24 26 26 25 24 22 21 21 20 19 18 17 15 15 16 16 15 15 15 15 16 15 14 14 13 12 13 12 11 10 9 10 11 12 12 13
5 5 6 6 4 3 3 5 5 3 1 3 4 4 5 6 8 7 7 6 6 6 7 9 11 10 10 11 11 10 11 12 11 12 15 17 17 18 18 15 14 15 15 15 16 17 18 20 21 22 23 25 26 26 25 23 21 21 20 20 19 18 16 15 14 15 16 17 17 17 17 17 17 16 15 14 13 14 13 11 10 10 10 9 9 10 12
5 5 5 5 5 4 3 4 4 3 4 5 7 9 8 7 6 5 4 4 5 5 6 9 10 9 9 10 11 10 10 10 10 12 16 17 18 18 18 16 15 15 15 15 15 16 18 20 21 21 23 25 26 26 25 22 22 21 19 18 19 19 17 16 15 15 15 16 17 18 18 18 18 18 16 13 12 13 12 10 10 10 10 9 8 9 10
4 4 5 4 4 5 6 4 3 3 4 5 7 8 7 6 5 4 4 4 4 5 7 9 10 9 9 11 12 11 10 9 11 14 16 17 18 18 18 16 15 14 15 16 16 16 18 21 20 20 22 24 26 26 25 23 23 23 21 19 18 18 18 17 16 15 15 16 17 18 18 18 17 17 16 13 11 11 10 10 10 10 11 11 10 10 10
3 5 7 6 6 6 5 3 2 3 5 5 6 6 5 5 4 3 5 5 4 6 8 9 9 9 10 12 13 12 9 9 12 14 16 17 18 18 16 14 12 12 14 16 16 16 18 20 19 20 22 24 25 25 25 23 23 23 22 21 20 18 17 16 15 15 15 17 17 18 18 17 16 15 15 13 11 11 11 10 10 10 11 11 11 10 11
6 7 6 5 5 5 4 3 4 5 5 6 6 3 2 1 2 3 4 5 6 8 9 9 9 10 12 13 13 11 9 10 12 14 15 17 18 16 13 10 10 12 14 15 15 16 18 19 19 20 22 23 25 25 24 24 24 23 22 22 21 19 17 15 15 15 15 16 17 18 17 16 16 15 14 14 13 12 10 9 10 11 10 11 12 13 14
7 5 4 3 3 4 4 4 4 4 3 3 2 0 1 1 2 3 5 7 8 8 8 9 10 12 12 11 10 10 10 10 11 13 14 17 17 14 10 9 11 12 13 13 14 16 18 19 19 20 22 23 24 24 25 26 25 22 21 22 21 19 17 15 14 15 15 15 16 17 16 15 15 14 14 14 13 12 10 8 9 10 10 11 13 14 16
6 5 5 4 4 4 3 2 3 3 2 1 1 3 5 6 5 6 8 9 8 7 8 10 11 12 11 10 10 11 10 8 8 10 14 16 16 12 9 9 12 12 12 12 14 16 17 18 19 21 23 23 22 23 25 26 24 20 21 22 21 18 17 15 14 14 15 15 16 16 15 14 13 13 12 12 11 9 8 8 8 10 11 12 13 14 14
8 6 5 4 5 5 5 5 4 3 2 2 4 5 5 5 6 7 9 9 8 9 11 12 11 11 11 10 11 11 10 8 8 11 14 16 14 9 7 11 14 14 13 13 14 15 17 17 18 21 22 22 22 23 25 25 23 21 21 21 19 18 17 15 13 13 14 13 13 14 13 12 12 12 10 8 7 5 4 5 7 8 7 6 7 10 11
8 6 4 4 3 3 4 5 4 3 1 2 3 3 4 6 7 8 9 10 10 12 12 12 10 10 10 10 11 12 11 10 11 13 14 15 12 7 7 11 14 13 13 13 13 15 17 17 18 20 21 22 23 23 24 24 24 22 20 19 18 19 18 16 14 13 13 12 12 12 11 11 11 10 7 6 5 4 5 5 3 2 1 2 6 7 9
8 7 4 3 3 3 4 4 4 3 2 2 1 2 5 8 9 9 10 11 12 12 12 11 10 9 10 11 11 11 10 10 12 13 13 12 9 5 6 11 13 11 11 12 13 15 17 18 18 20 21 22 23 24 23 23 23 22 20 18 18 19 19 17 15 15 14 13 12 11 10 9 8 6 5 6 7 7 6 4 5 7 7 9 9 9 10
8 7 4 4 6 7 5 4 3 2 2 1 2 5 7 7 9 10 11 11 11 11 11 11 10 10 11 11 10 10 10 11 13 13 12 9 7 4 4 9 12 10 10 12 13 15 17 18 18 20 23 23 23 23 22 21 21 21 20 19 18 18 19 18 17 16 14 12 10 9 7 5 5 5 5 6 5 5 4 2 2 5 7 9 10 10 12
6 6 6 7 8 7 5 4 3 1 0 1 4 6 6 7 9 10 10 10 11 11 11 10 10 11 12 11 10 11 12 12 12 13 10 7 5 3 3 7 10 10 10 12 12 13 16 17 18 20 24 24 23 22 21 19 19 19 19 18 17 18 18 18 17 16 14 11 8 6 3 2 2 2 4 3 2 3 3 2 3 5 8 11 12 12 14
6 7 7 8 7 6 5 4 3 3 2 2 4 6 6 7 9 10 10 11 12 11 10 9 9 10 11 10 10 13 14 12 12 13 10 6 4 3 4 7 11 11 10 11 11 12 15 16 17 20 24 24 23 22 20 17 16 18 18 17 17 17 17 17 16 16 15 12 8 4 2 1 1 1 1 2 4 6 6 6 6 7 10 14 16 15 15
8 8 8 7 7 7 5 4 5 4 3 3 4 6 6 7 10 11 11 11 12 12 11 9 9 9 10 10 11 12 12 11 11 11 9 5 3 3 5 8 11 11 10 10 10 12 14 15 15 18 22 23 22 21 19 16 15 16 16 15 15 16 16 16 17 17 16 13 10 6 4 3 2 2 3 6 7 9 10 10 11 11 13 15 16 15 15
9 10 9 7 5 5 5 4 4 3 3 3 4 5 7 9 10 11 11 10 11 13 12 11 9 9 9 9 10 11 11 10 10 10 9 5 2 3 5 9 10 10 8 8 10 12 13 13 14 17 20 21 22 22 21 17 15 15 15 13 13 14 14 15 17 17 16 14 12 9 7 5 4 5 6 8 10 12 13 14 15 16 15 15 15 15 16
9 9 9 7 5 4 4 4 3 4 4 4 5 6 8 9 10 9 10 10 11 12 12 12 12 10 9 9 9 10 11 11 10 10 9 5 1 2 6 9 9 8 7 7 10 12 12 12 12 14 18 21 23 25 25 21 16 14 14 13 12 13 13 14 15 16 16 15 14 12 12 11 9 7 8 9 11 13 15 16 17 17 18 18 19 20 22
3 2 3 4 5 6 6 5 5 6 5 5 6 7 8 9 9 9 9 9 10 11 11 12 12 11 9 9 8 9 11 11 10 10 9 6 2 1 5 9 10 8 7 7 9 11 11 10 10 12 16 21 25 27 27 23 17 14 14 14 13 12 13 14 15 16 16 15 15 15 16 16 14 13 13 13 15 17 18 18 17 17 18 20 22 24 26
6 6 3 1 5 6 6 6 7 7 5 6 6 8 9 9 8 7 7 8 9 9 9 10 11 10 8 7 7 8 9 9 7 7 7 5 2 2 5 9 10 9 7 6 8 10 11 10 10 11 14 20 25 28 28 24 18 15 14 14 13 12 12 13 14 15 14 14 15 18 20 20 20 20 20 20 20 20 19 18 18 18 18 20 22 24 26
4 3 1 1 3 5 6 6 7 7 6 6 7 8 9 8 7 7 6 6 7 7 8 9 11 10 8 7 6 6 7 6 5 3 4 4 4 4 6 9 11 10 7 5 7 10 10 10 11 12 13 16 22 27 27 24 20 17 16 15 14 12 12 12 12 13 13 14 16 18 20 21 22 22 22 22 22 21 20 20 20 20 20 21 22 23 25
2 4 5 6 6 5 4 4 5 7 7 6 7 8 7 7 7 7 7 6 6 6 7 9 10 10 8 7 6 5 5 5 4 2 3 4 5 5 5 7 10 10 6 4 6 9 9 9 12 14 13 13 18 24 26 24 21 19 18 17 16 15 13 12 12 12 12 13 15 18 20 21 22 22 22 22 22 22 21 22 22 22 22 22 23 24 26
6 8 10 10 9 8 6 4 6 8 9 8 9 10 9 8 7 7 7 6 6 6 7 8 8 7 6 5 5 5 4 4 2 2 2 3 4 4 4 6 8 7 4 4 6 9 8 8 11 15 15 14 16 21 25 25 23 21 21 21 20 19 17 15 14 14 14 15 17 20 21 21 22 22 23 24 23 23 23 23 23 24 24 25 25 25 25
9 11 13 11 10 10 9 8 8 9 11 12 12 11 10 8 8 7 6 6 5 6 6 6 6 6 5 4 4 5 4 4 4 3 3 2 3 4 4 6 7 5 3 5 7 8 7 6 7 12 15 15 14 17 23 25 24 23 24 23 23 22 21 19 17 17 18 18 20 22 22 22 23 24 25 25 25 24 24 24 23 23 23 23 23 23 23
9 11 13 13 13 12 12 12 11 12 13 14 13 10 8 8 8 7 6 5 5 6 6 5 4 7 7 5 5 4 3 3 4 4 3 3 2 2 3 6 8 4 4 6 7 8 7 6 6 8 11 13 12 13 17 21 23 24 25 24 23 23 23 22 22 22 22 22 22 23 23 23 24 24 24 24 24 24 24 24 23 23 23 23 23 23 24
11 12 14 16 16 15 13 14 15 15 15 15 13 11 10 10 9 7 6 5 6 7 7 6 4 6 6 5 5 3 2 2 3 2 2 1 2 1 3 6 7 4 6 7 7 7 7 8 8 7 8 10 11 11 13 15 17 20 22 23 23 22 22 21 22 23 22 22 22 23 23 23 23 23 24 23 23 23 23 23 23 23 23 23 24 24 24
14 14 14 15 15 13 11 11 14 16 16 15 13 12 11 11 9 7 6 6 7 8 8 7 6 5 5 4 4 3 2 3 2 3 3 0 2 3 3 6 5 6 8 8 8 8 8 8 9 9 9 10 10 11 12 12 12 14 16 18 19 20 20 20 20 20 20 20 20 21 22 22 22 22 22 22 21 21 21 21 21 21 21 21 21 21 20
Wind_Direction
285 249 189 148 106 106 111 104 109 109 103 103 102 119 157 146 116 155 183 143 132 172 182 144 124 121 120 122 130 133 125 117 110 95 32 326 320 325 328 314 286 276 280 282 286 294 301 309 315 323 332 334 331 329 330 330 329 327 327 328 331 332 330 329 330 332 332 328 320 311 302 293 287 280 274 270 268 267 265 261 256 252 248 243 239 236 235
308 321 149 136 102 97 98 97 116 115 101 103 106 110 122 110 113 140 145 127 132 175 177 158 153 143 132 126 126 125 123 130 144 146 360 332 325 315 302 289 277 270 271 270 274 285 298 309 315 317 318 323 325 325 327 329 329 328 325 321 322 328 329 329 330 330 330 330 326 321 313 301 292 286 279 274 269 266 265 264 262 258 253 249 244 238 235
312 306 166 121 91 86 77 49 70 104 100 96 101 105 104 100 109 128 125 117 119 195 175 154 159 148 115 108 122 134 148 163 163 144 350 328 304 288 276 271 270 267 266 275 288 298 307 315 317 312 312 319 322 322 325 327 329 329 324 317 317 322 326 330 331 330 329 329 325 322 319 312 303 294 287 281 273 267 264 262 261 258 253 249 247 244 240
308 309 110 115 92 75 63 31 19 88 103 101 104 110 116 125 132 125 112 120 148 215 175 114 84 78 88 110 139 147 169 187 174 104 334 305 274 272 279 274 269 272 278 293 305 309 312 314 314 313 314 316 319 322 326 327 329 329 325 319 315 317 324 330 331 331 331 328 324 322 319 316 313 307 297 288 279 271 265 261 259 256 251 249 249 249 246
292 313 75 114 83 59 48 352 332 76 100 96 86 70 73 113 134 133 133 162 186 191 108 77 57 46 67 115 154 157 184 210 216 279 307 294 272 275 289 285 279 282 287 295 303 307 310 313 319 324 324 322 322 325 326 326 328 328 326 323 317 315 323 327 327 330 332 329 326 325 322 319 317 312 303 294 285 275 268 264 260 256 255 255 254 253 249
263 296 360 68 58 59 269 291 17 89 96 92 82 59 51 67 91 111 118 124 132 114 102 112 129 88 45 131 159 173 177 179 262 313 317 313 302 304 312 305 289 283 285 294 305 316 324 328 332 334 334 331 328 326 325 325 327 330 330 328 321 317 321 323 324 327 329 329 329 327 326 325 317 306 300 295 289 283 277 271 265 262 262 262 258 253 248
230 306 28 50 60 186 235 5 80 95 95 92 84 64 49 57 72 86 92 99 122 129 135 154 149 111 108 127 138 157 161 143 113 41 357 334 333 339 335 313 287 287 297 306 318 335 343 341 336 330 330 329 326 324 325 326 327 330 332 329 323 320 320 320 322 325 328 328 328 327 327 325 316 303 294 290 286 284 281 276 271 269 266 262 258 252 247
29 17 45 118 178 214 346 50 91 102 94 91 85 63 30 26 69 97 104 114 133 127 114 81 48 83 108 112 120 114 349 51 106 83 16 323 337 354 322 295 296 312 326 332 339 345 342 337 333 329 328 328 324 321 321 322 324 326 325 323 321 321 321 321 321 324 327 326 324 325 325 322 316 308 300 292 284 277 275 273 272 273 270 267 263 258 253
95 77 78 111 113 18 351 3 35 57 111 126 112 94 18 342 31 109 114 107 101 83 66 27 13 56 78 43 354 324 335 348 88 74 346 328 358 358 326 323 338 352 358 355 347 340 334 332 332 330 329 328 325 321 319 319 321 321 318 316 319 321 322 323 323 324 327 326 322 323 323 320 316 312 308 302 293 285 278 270 263 263 268 272 270 265 261
80 96 98 90 88 339 271 273 326 8 92 133 119 102 67 308 337 100 111 100 81 65 55 33 22 48 59 15 316 307 319 320 341 9 358 5 11 357 344 354 6 4 358 350 341 334 331 331 333 331 328 326 324 320 317 317 317 317 314 314 318 321 322 324 325 327 328 325 320 321 323 321 317 312 311 310 305 298 290 277 267 263 266 272 273 269 265
62 103 121 158 164 208 247 260 309 346 95 127 100 72 4 280 304 86 99 88 73 68 60 55 60 64 52 307 278 286 296 292 300 15 17 12 5 357 357 2 1 352 348 344 337 334 332 331 333 333 330 325 322 316 313 314 313 312 313 315 318 320 322 324 326 327 328 325 320 320 321 320 318 313 309 311 310 304 293 284 284 285 280 276 276 274 270
59 101 112 171 178 213 260 281 304 311 37 100 77 33 263 256 283 83 97 94 84 82 76 71 79 89 125 253 263 272 283 301 338 27 31 359 351 353 353 350 346 346 346 341 335 331 330 328 331 335 332 326 319 313 311 311 309 308 313 316 317 318 319 324 326 325 324 323 321 320 318 316 317 314 308 306 305 298 290 288 292 295 292 288 286 282 278
59 92 112 189 220 234 254 285 313 326 25 65 80 220 230 209 125 88 96 104 97 85 85 81 83 204 227 235 259 283 308 336 353 7 3 350 347 347 342 341 347 348 343 338 332 328 328 328 329 333 331 323 316 313 311 309 307 311 316 318 318 318 318 322 325 324 321 321 320 320 317 313 311 311 308 305 298 292 290 289 291 295 297 296 291 287 285
54 95 112 98 281 254 229 231 323 3 54 96 208 210 190 134 111 92 90 104 100 87 97 126 244 264 267 274 293 312 341 351 318 327 349 350 345 343 344 349 352 347 340 335 331 327 328 328 327 328 328 321 315 313 311 309 311 316 319 320 320 320 320 320 322 322 321 320 321 320 316 310 308 308 308 307 302 294 290 289 291 293 294 292 287 285 285
74 71 75 90 223 256 242 143 10 19 97 186 201 146 108 115 114 104 101 118 116 102 93 290 284 287 301 313 312 318 330 303 292 331 353 347 340 343 347 347 345 343 338 333 329 326 327 328 326 326 325 320 316 312 309 312 318 319 319 320 321 321 321 320 320 321 319 319 322 321 312 305 305 307 306 306 306 298 285 283 289 292 290 287 285 282 280
107 112 152 187 208 245 346 103 128 134 156 167 145 117 118 137 121 118 118 133 176 137 133 306 310 315 314 310 309 315 308 292 305 341 348 345 345 345 341 339 339 340 337 331 328 327 328 329 328 326 322 318 314 311 310 315 321 321 319 321 321 319 319 320 321 322 320 318 319 318 309 302 305 308 307 304 304 299 287 278 280 283 283 283 280 275 272
121 156 188 196 182 119 52 87 129 127 105 110 120 120 128 147 152 141 129 163 270 244 108 17 337 308 286 296 310 314 300 295 316 336 336 345 350 341 334 336 338 337 335 331 328 327 328 330 329 326 323 316 310 309 314 319 321 322 321 321 318 315 316 319 322 323 321 319 318 315 308 303 304 307 308 303 294 286 279 274 273 275 276 275 271 267 265
79 80 103 129 110 85 71 79 102 111 106 107 112 111 122 173 180 150 140 185 239 282 82 67 306 271 277 303 320 319 309 303 310 323 335 347 347 337 332 335 335 334 334 331 328 326 328 330 330 327 325 319 312 312 317 320 321 323 323 320 315 313 314 316 320 322 322 321 319 315 312 310 305 304 304 299 286 271 263 266 267 265 265 265 262 260 259
94 90 182 152 122 114 111 98 89 96 103 108 120 126 150 179 140 109 137 182 194 65 72 124 264 277 298 320 320 315 313 300 298 316 338 344 340 334 330 332 333 334 332 329 327 326 326 329 330 328 325 323 320 319 321 322 323 324 322 317 314 313 313 313 315 319 323 321 315 311 315 317 314 308 304 296 285 273 268 274 268 260 261 264 262 258 255
97 164 191 139 108 113 123 116 115 118 116 125 145 144 132 112 98 104 180 189 159 18 324 269 269 294 315 323 308 304 303 296 301 320 337 339 336 333 331 330 333 334 331 326 324 324 325 328 329 328 327 328 327 325 326 327 327 324 319 316 314 314 314 312 310 314 319 318 310 308 313 317 317 314 309 298 287 281 285 296 286 267 258 258 260 261 258
82 103 112 98 88 72 80 130 157 161 147 152 155 112 94 100 110 128 251 254 247 268 279 279 295 320 317 298 279 283 291 304 321 333 337 337 335 333 330 330 332 333 329 325 323 323 324 327 330 331 331 331 331 330 330 331 331 326 318 314 314 315 315 311 309 311 315 313 309 308 309 313 316 314 308 297 290 290 294 296 281 265 250 246 252 257 252
138 192 170 133 122 122 184 185 177 170 158 149 130 108 110 130 151 146 337 309 299 305 316 327 8 36 307 295 289 286 302 326 342 342 341 339 335 333 332 330 329 330 330 328 327 325 326 329 331 332 333 334 335 335 334 332 331 328 320 312 311 314 315 312 309 310 310 309 310 309 307 309 313 312 307 299 292 288 278 260 256 254 246 242 244 242 236
185 209 201 160 132 150 195 181 145 146 149 126 110 120 146 176 197 184 320 314 312 327 346 13 77 120 292 314 318 314 325 341 348 348 346 340 332 330 329 327 325 326 330 331 330 328 328 330 331 332 334 336 337 339 338 335 332 329 323 313 308 311 314 312 309 309 307 306 308 309 307 308 310 307 305 304 300 291 277 262 256 251 246 245 242 236 232
125 162 176 150 125 140 170 143 120 125 125 107 106 135 162 211 268 289 335 2 20 11 5 25 54 43 337 338 341 337 336 342 345 347 345 340 334 330 328 326 324 324 328 331 331 331 331 331 332 332 334 338 340 340 339 337 335 331 325 316 309 309 312 313 311 309 306 304 305 305 307 311 310 303 295 294 295 288 271 258 254 246 245 248 245 239 238
120 147 149 116 108 121 129 116 102 92 96 104 121 162 211 325 329 357 45 71 83 78 52 20 7 360 356 352 348 345 345 344 343 341 338 337 336 332 327 326 327 328 330 332 333 334 333 333 334 333 333 338 341 340 339 338 336 332 327 321 313 309 309 311 311 309 306 304 301 299 301 307 308 300 285 275 275 271 258 240 224 220 229 237 235 230 232
119 131 107 83 81 93 98 86 68 71 105 113 119 284 316 324 350 68 81 89 92 80 68 29 359 1 3 355 346 346 349 345 341 338 335 332 331 329 327 327 330 334 336 336 337 337 335 335 336 334 334 339 341 340 340 339 336 332 329 325 319 314 309 306 304 302 301 300 295 291 294 299 302 298 285 270 264 261 252 235 219 218 224 227 225 221 219
91 111 104 85 63 45 90 131 167 199 182 112 86 356 336 3 57 68 62 58 56 53 44 20 0 359 360 354 347 344 343 341 338 337 335 330 327 330 332 330 332 338 341 340 340 339 337 337 337 335 337 341 342 343 343 341 337 334 331 327 323 319 313 308 302 297 295 293 288 287 292 296 297 297 291 282 272 265 256 242 230 229 230 229 223 216 212
83 98 111 121 146 199 203 179 171 172 95 66 61 33 25 47 60 55 41 32 30 32 23 7 356 350 349 347 343 337 337 338 335 334 335 333 331 334 336 334 332 337 341 341 340 340 341 340 338 336 339 343 345 346 346 345 342 338 335 329 323 318 317 317 310 300 295 293 291 291 294 296 296 295 294 289 282 274 266 256 247 244 244 241 228 209 205
115 118 117 133 160 161 129 103 99 75 44 39 36 33 42 58 54 37 22 14 9 2 351 347 346 341 337 337 334 329 330 332 329 331 335 335 335 337 338 334 330 334 342 343 342 343 346 344 339 338 340 345 348 347 347 347 346 344 341 333 324 320 321 321 314 305 298 294 293 294 295 296 295 293 291 287 281 275 271 263 254 250 249 245 229 205 198
154 122 100 84 83 90 86 85 86 58 35 39 42 43 54 67 54 18 346 337 343 339 329 329 332 332 332 332 330 325 325 328 332 333 334 334 335 337 338 336 333 335 341 343 343 348 351 348 342 340 343 346 349 349 348 347 345 344 342 336 327 324 325 320 312 305 297 293 295 298 298 295 294 292 289 284 277 271 269 266 263 256 244 235 225 209 196
113 83 80 73 75 86 90 91 81 43 34 53 58 44 40 52 47 357 321 322 331 327 322 322 325 326 326 327 327 326 328 335 336 334 333 334 336 339 342 344 340 337 341 344 346 350 352 347 341 342 347 349 350 350 349 345 341 339 339 337 333 329 327 323 317 309 301 298 301 303 300 297 298 296 290 282 275 267 261 260 266 262 244 231 230 224 204
87 70 65 58 64 76 71 60 57 39 36 59 66 42 9 57 33 324 315 325 329 324 322 324 325 325 325 327 330 330 332 335 334 332 333 336 337 342 350 356 354 351 351 352 353 353 351 346 341 343 349 351 349 350 348 343 338 337 337 337 334 330 326 325 323 316 308 303 303 304 303 301 299 297 293 288 279 268 257 251 258 260 248 233 230 227 213
96 83 69 53 57 58 40 37 61 61 55 85 111 215 292 348 355 334 328 330 329 327 327 327 326 326 328 331 333 333 333 335 336 335 335 335 339 347 356 360 1 3 1 359 358 357 353 350 347 348 350 350 348 349 348 343 339 338 338 338 336 333 329 328 326 320 313 305 303 305 307 304 299 298 299 294 283 269 257 248 246 250 253 249 241 235 226
127 146 165 168 145 117 92 82 101 101 81 36 323 334 354 360 350 334 332 331 326 322 321 321 324 328 329 329 332 335 334 333 334 333 330 332 339 350 359 360 2 5 6 6 5 360 356 355 354 352 352 351 350 349 348 345 342 342 341 341 340 338 333 329 326 321 315 309 307 309 309 308 308 308 304 300 296 287 276 269 259 251 252 255 253 253 249
130 145 151 129 120 130 135 136 146 150 112 355 323 324 345 346 331 326 329 327 319 316 317 320 324 327 325 323 328 332 330 325 327 329 329 333 340 351 8 9 4 0 2 8 8 2 358 359 356 353 353 355 354 350 347 345 345 345 342 340 342 345 341 334 328 326 323 316 310 311 313 316 321 322 318 320 325 318 292 290 299 296 286 261 236 238 247
116 116 103 82 84 128 133 119 124 136 99 358 305 303 329 331 326 325 324 322 320 320 319 320 322 324 324 322 323 324 323 323 328 329 329 335 342 355 19 15 5 356 354 359 1 1 360 357 353 353 356 358 356 353 349 346 346 346 344 342 346 349 348 341 336 337 337 329 320 319 322 325 328 329 328 325 315 279 234 216 227 270 296 135 163 195 214
114 116 114 92 82 99 109 107 110 102 67 44 353 325 326 323 322 322 321 322 326 327 328 327 322 318 318 319 320 324 327 329 332 333 334 339 348 8 25 14 3 353 347 347 351 357 358 352 350 355 357 356 355 354 351 347 345 345 345 347 350 351 349 348 348 348 345 339 335 336 336 334 334 330 317 307 304 292 267 224 181 173 170 159 159 174 181
134 129 124 108 104 109 117 120 118 103 76 49 345 327 320 317 320 322 321 323 327 330 331 329 319 312 317 321 324 331 334 334 336 339 341 348 358 16 26 11 360 348 340 341 346 353 353 349 351 357 357 353 353 354 350 346 343 343 343 347 350 352 352 353 355 356 354 352 350 349 347 345 341 325 303 304 320 323 310 302 139 146 156 154 149 150 155
139 130 128 132 131 131 135 142 152 176 250 308 318 319 315 313 318 319 317 319 324 327 328 325 320 321 324 324 325 330 331 332 337 341 341 349 3 10 7 1 356 349 342 343 347 351 350 350 356 0 357 354 354 354 351 345 343 343 344 346 350 355 358 358 357 356 358 1 359 351 350 29 18 315 295 306 9 44 47 56 98 132 142 141 140 142 148
142 144 150 155 158 158 162 184 221 245 259 289 304 307 308 312 317 315 310 312 321 328 329 323 319 323 325 320 319 326 330 333 341 345 340 337 355 9 354 348 352 354 350 350 352 351 350 355 3 3 358 356 356 354 349 345 345 346 345 344 350 359 3 1 359 356 356 360 3 354 343 26 42 272 204 134 103 88 79 78 85 100 112 119 125 135 148
160 165 165 167 170 173 188 237 267 267 262 283 303 310 312 314 313 309 305 308 319 329 332 325 315 317 324 321 318 325 332 337 346 352 347 328 328 358 352 345 351 358 357 354 358 356 353 360 9 6 1 360 360 357 352 349 349 349 348 347 354 3 5 2 1 359 358 5 16 16 3 9 35 90 117 110 100 89 83 84 88 94 102 111 118 126 135
178 181 178 175 171 180 209 257 272 249 236 264 294 308 317 320 316 307 302 308 318 325 331 332 325 323 329 329 324 329 338 341 345 353 352 335 330 13 357 346 354 6 5 1 6 4 359 3 13 11 7 6 6 3 2 1 357 354 354 354 358 3 7 7 5 4 7 18 32 44 52 62 82 109 115 106 96 88 84 84 86 91 101 111 115 114 113
201 199 195 190 182 193 228 255 234 198 215 268 295 305 317 326 322 307 299 306 317 322 329 335 336 337 343 341 331 330 338 342 344 350 353 347 347 26 5 358 5 16 16 11 11 9 4 6 13 13 12 13 13 10 10 11 8 3 1 2 4 9 13 14 12 14 18 24 32 47 65 79 90 103 107 101 93 90 89 88 86 88 94 99 100 98 98
190 205 219 215 208 216 238 242 206 194 221 275 299 306 314 321 320 309 299 302 312 320 328 333 335 338 344 345 336 330 336 340 340 342 347 349 333 342 3 7 11 15 18 19 17 13 9 9 11 12 14 16 17 16 14 14 13 9 7 9 14 18 17 16 18 22 26 28 32 45 63 74 78 79 79 79 80 83 85 85 85 88 92 94 94 96 98
72 52 40 225 221 235 251 243 217 213 244 281 295 301 306 308 309 308 299 293 300 314 326 331 331 332 337 342 338 332 335 340 338 336 346 357 346 325 356 7 7 5 11 22 23 18 14 10 11 13 13 14 17 19 19 17 16 16 15 18 21 21 18 17 21 26 29 32 41 53 63 70 74 77 81 84 86 87 86 85 83 83 85 88 91 94 98
86 65 49 227 242 273 288 275 248 243 257 275 288 296 297 290 288 297 301 293 295 309 322 324 322 321 322 326 328 326 331 339 347 354 6 7 352 341 354 4 4 2 7 24 30 27 22 16 16 18 16 13 17 22 24 23 22 23 24 25 26 24 20 20 27 34 38 41 48 59 66 71 76 82 89 93 95 95 95 94 90 86 85 86 88 90 93
210 248 255 252 256 273 294 285 256 253 258 269 281 286 282 270 271 290 304 303 296 304 318 323 321 317 310 305 306 312 322 328 337 3 16 1 350 346 350 355 358 2 13 43 44 35 29 26 28 31 27 20 22 28 32 32 31 32 34 36 38 38 36 34 39 49 56 57 60 66 71 75 79 83 87 89 90 91 92 93 92 91 90 89 89 89 90
243 257 263 263 264 267 268 258 249 251 256 264 271 273 272 267 267 284 305 310 298 301 319 331 332 327 313 292 285 298 302 292 294 345 10 354 343 343 343 349 359 10 41 81 64 48 39 35 38 41 41 35 32 37 42 44 43 42 43 45 46 47 47 49 54 62 67 69 70 71 73 76 79 82 84 85 86 87 88 89 88 89 89 88 87 89 91
257 270 275 272 266 263 261 258 253 252 257 267 272 273 270 263 261 276 304 311 295 296 316 331 338 338 329 293 277 295 292 264 266 300 320 317 328 347 360 4 7 20 79 98 72 56 50 39 35 42 46 45 40 42 48 52 53 52 51 51 51 52 54 57 62 66 69 71 74 76 77 78 80 82 85 87 89 90 91 91 90 90 91 93 94 96 99
256 268 275 274 269 263 258 256 254 255 263 272 274 266 254 248 249 267 294 297 280 286 301 307 319 332 329 299 275 291 303 282 285 295 288 279 306 347 7 5 6 27 104 104 78 67 63 51 33 35 43 45 42 42 48 53 56 58 58 57 57 58 60 62 66 69 71 72 75 78 81 83 85 87 87 88 90 91 92 93 95 97 99 100 101 102 105
259 263 270 277 279 277 271 265 262 264 273 278 273 255 242 241 247 262 281 277 265 273 284 285 304 333 330 296 267 273 303 306 295 261 225 268 340 355 346 352 6 65 116 103 82 79 76 61 47 42 46 49 48 46 45 48 53 59 62 63 63 63 64 64 66 68 70 72 76 80 83 85 86 87 87 88 90 93 94 96 98 100 101 102 104 106 108
264 263 264 271 281 288 289 278 268 267 272 274 264 248 240 241 245 253 261 260 259 267 273 276 293 324 327 289 260 260 286 302 273 200 187 51 27 42 22 14 43 111 124 105 88 90 84 66 58 60 62 64 64 59 54 51 50 52 57 61 64 65 66 67 69 71 74 76 80 85 87 87 88 89 90 91 94 96 98 99 101 102 103 105 107 109 110
Height
777 774 775 772 774 779 782 786 791 791 791 794 798 806 809 807 817 836 834 826 832 832 824 822 821 819 820 820 819 818 818 817 817 816 815 814 813 811 810 809 807 806 805 803 801 800 798 796 795 793 792 790 787 786 784 782 781 779 777 776 774 773 771 769 767 765 763 762 761 760 759 758 757 756 756 756 756 757 758 759 759 759 759 759 759 759 760
777 773 775 772 773 779 783 785 788 789 792 796 798 803 805 805 814 824 825 827 829 824 821 820 818 817 818 818 818 818 818 818 816 815 815 814 813 811 809 808 806 805 803 801 799 798 796 795 794 792 791 789 786 785 783 781 780 778 776 775 773 772 770 768 766 765 763 761 760 759 758 756 756 755 755 755 755 755 755 756 757 758 758 757 757 757 757
784 776 775 775 777 784 789 790 790 790 794 799 802 806 808 812 822 825 823 829 830 821 817 818 817 816 816 817 819 818 817 817 816 815 814 813 812 811 808 807 805 803 801 799 798 797 796 795 793 791 789 787 786 784 782 780 778 776 775 773 771 770 768 767 765 763 762 760 759 757 756 755 754 753 753 753 753 753 753 754 755 755 755 755 754 755 755
794 780 780 784 782 785 793 798 798 796 798 802 805 806 807 813 823 828 828 833 831 821 816 817 817 816 815 817 818 818 817 816 815 815 814 813 811 809 807 805 804 802 801 800 798 796 795 793 791 790 788 786 784 782 781 779 777 775 773 771 769 768 766 765 764 762 761 759 757 756 755 754 753 752 752 752 751 752 751 751 752 752 752 752 752 753 753
797 785 784 785 784 799 813 808 800 798 799 802 804 805 806 808 815 824 829 829 824 819 817 818 819 817 817 818 817 817 817 815 814 814 813 812 811 808 807 805 803 803 801 798 797 795 793 791 790 788 786 784 783 781 779 778 776 774 772 769 768 766 764 764 762 760 759 757 756 755 754 753 752 751 751 750 750 750 749 749 750 749 749 749 749 750 751
798 790 783 785 804 828 828 806 793 796 800 804 811 815 814 811 812 816 820 821 819 819 819 820 820 818 816 816 814 814 814 813 814 813 812 811 810 807 806 805 803 802 799 796 795 793 792 791 789 787 785 783 782 780 778 776 774 773 771 768 767 765 763 762 760 759 758 756 754 754 752 752 750 750 750 749 748 748 747 747 747 747 746 746 747 748 749
796 790 787 806 833 835 814 799 796 797 799 804 811 818 818 815 816 817 819 821 820 819 819 817 817 816 814 813 813 812 811 812 812 812 811 810 808 807 805 804 802 800 797 796 795 793 791 790 787 786 784 782 780 778 776 775 773 771 770 768 766 764 762 760 759 757 756 755 753 752 751 750 748 748 747 746 745 745 745 745 745 744 744 744 745 746 746
797 799 804 821 832 817 801 801 801 798 800 803 810 823 826 819 818 820 820 822 821 818 818 815 814 814 813 812 813 812 811 810 810 810 810 808 807 805 804 803 801 799 797 796 794 792 791 789 787 784 782 780 778 776 774 773 771 770 768 767 764 763 761 759 758 756 755 754 752 750 749 748 747 746 746 744 743 742 742 742 743 743 743 743 743 744 744
800 813 820 820 820 817 812 808 802 798 801 801 806 826 832 821 818 820 820 821 821 818 817 815 813 813 814 817 816 812 810 809 808 807 807 805 805 804 802 802 800 798 797 796 794 792 790 788 786 783 781 779 777 775 773 771 769 768 767 765 763 762 760 758 757 755 754 752 751 749 748 747 745 745 744 743 743 742 741 740 739 740 740 741 741 742 742
799 815 829 828 832 835 823 810 802 797 798 797 800 820 833 823 817 818 818 820 821 818 817 817 814 815 820 825 821 813 809 809 806 805 805 804 804 803 802 801 799 797 796 794 793 791 789 787 785 782 780 778 775 773 772 769 768 766 764 763 762 760 759 757 756 754 753 752 750 748 747 745 744 743 742 741 741 741 741 739 737 736 736 737 738 739 740
798 810 826 833 837 834 818 807 803 797 797 796 798 820 838 827 816 817 818 819 820 818 818 818 817 821 829 831 822 813 809 808 805 805 804 803 803 802 800 799 798 796 795 793 791 790 787 785 783 781 779 777 774 772 770 768 766 764 763 762 760 759 758 756 754 753 752 750 749 747 745 744 742 741 740 739 739 739 739 737 736 736 735 735 735 736 737
800 809 824 831 830 823 811 805 802 797 794 794 806 833 841 825 815 817 817 818 820 818 817 819 819 824 829 827 818 810 807 806 805 804 804 803 802 800 799 798 797 795 794 792 790 788 786 784 782 780 778 776 773 771 769 767 765 763 762 761 759 758 757 755 753 752 750 749 747 745 743 742 741 740 739 738 737 737 736 735 735 735 734 734 733 734 735
806 814 828 833 826 815 807 804 801 795 793 803 823 837 831 817 816 817 814 816 818 816 817 819 819 820 819 815 811 808 806 806 805 804 803 801 800 799 798 797 796 794 793 791 789 787 785 783 781 779 777 774 772 770 767 766 764 762 761 760 758 756 755 753 752 750 748 747 745 743 742 740 738 738 737 737 736 736 735 734 733 733 733 733 732 732 733
812 816 826 834 829 812 801 801 799 794 804 821 828 824 815 813 816 814 813 816 816 814 816 817 816 814 812 809 809 807 806 806 804 803 801 800 799 798 797 796 795 794 792 790 788 786 784 782 780 778 776 773 771 768 766 764 763 761 760 758 757 755 753 751 750 748 746 745 743 741 740 738 736 735 735 735 735 734 734 733 732 732 732 732 731 731 731
814 821 828 836 831 811 797 799 803 803 811 820 817 812 813 814 812 812 815 814 812 813 815 813 813 812 810 809 808 806 805 805 803 802 801 799 798 798 796 795 794 792 791 789 787 785 782 781 779 776 774 772 769 767 765 763 762 760 758 757 755 753 751 750 748 746 745 743 741 739 738 736 735 733 732 732 732 732 732 731 730 730 730 730 730 730 730
813 825 828 824 817 805 796 800 807 808 808 807 807 810 814 812 810 812 813 812 811 812 812 812 812 811 810 809 807 805 805 804 802 801 800 798 798 797 795 794 793 791 790 788 785 783 781 779 777 775 772 770 767 765 763 761 760 758 756 755 753 751 750 748 746 745 743 741 739 738 736 734 733 731 730 730 729 729 729 729 729 728 728 729 729 728 728
806 813 814 808 804 801 798 799 803 805 804 803 804 808 811 811 810 810 810 811 811 809 810 811 810 809 809 807 805 805 804 803 801 800 799 798 797 796 794 793 792 790 789 787 784 782 780 777 776 773 771 769 766 764 762 760 758 757 755 753 751 750 748 747 745 743 741 739 738 736 734 733 731 729 728 727 727 726 726 726 726 726 726 727 727 726 727
804 805 805 803 803 803 801 801 802 803 803 804 804 806 809 809 809 808 809 810 809 808 808 809 808 808 807 805 804 804 803 802 800 799 798 797 796 794 793 792 790 789 788 786 783 781 778 776 774 771 769 767 765 762 760 759 757 755 753 751 749 748 746 745 743 741 739 737 736 734 733 731 730 728 727 725 725 724 723 723 724 725 725 725 725 725 725
810 813 810 804 804 805 804 803 804 803 803 804 804 805 807 806 806 807 807 808 807 807 806 806 807 806 804 804 804 803 802 801 800 798 797 796 794 793 792 791 790 788 786 784 782 779 777 774 772 770 768 765 763 761 759 757 755 753 751 750 748 746 744 743 741 739 738 736 735 733 731 730 728 726 725 724 723 723 722 721 721 723 724 724 724 724 725
809 812 809 803 804 805 803 803 805 804 804 804 803 803 805 805 805 806 806 806 806 804 804 804 805 804 804 804 804 802 801 800 798 797 796 795 793 792 791 790 789 787 785 784 781 778 776 773 771 769 766 763 762 759 757 755 753 751 750 748 746 744 743 741 740 738 736 735 733 732 730 729 727 725 723 722 722 721 720 719 720 722 723 724 724 724 725
810 811 808 806 808 809 806 804 804 803 803 804 803 804 805 805 805 805 805 804 803 802 802 803 802 803 804 802 801 801 800 798 797 796 795 794 793 792 790 789 788 786 784 783 780 777 775 772 770 767 764 762 760 758 755 754 752 750 748 746 744 743 741 739 738 736 735 733 732 730 729 727 725 724 722 721 720 718 717 717 718 720 722 723 724 724 724
815 811 806 806 810 813 811 806 803 803 803 803 804 805 805 805 805 805 804 803 802 801 801 801 802 803 803 801 800 800 798 797 796 795 794 793 792 790 789 788 787 785 783 781 779 776 774 771 769 767 764 761 759 756 754 753 750 749 747 745 743 742 740 738 737 735 733 732 730 729 727 725 723 722 721 719 718 717 716 716 717 719 720 720 721 722 722
809 805 802 802 804 808 808 804 803 802 801 801 803 805 804 804 804 802 802 803 803 802 802 801 801 802 801 800 799 798 796 796 795 794 793 792 790 789 788 787 785 784 782 780 778 775 773 770 768 766 763 760 758 755 753 751 749 747 745 743 742 740 738 737 735 733 732 730 728 727 725 724 722 720 719 718 717 716 716 716 716 717 718 717 717 717 718
801 800 800 800 801 804 804 803 802 802 800 801 803 803 803 803 802 801 802 803 803 803 802 801 801 801 800 799 798 796 796 795 794 793 793 791 789 789 787 785 784 783 781 779 777 774 772 770 767 765 762 760 757 755 752 750 748 746 744 742 741 739 737 736 734 732 731 729 727 726 724 722 721 720 718 717 716 715 715 715 715 715 715 715 714 715 715
798 799 798 798 800 802 802 801 801 801 800 801 802 802 802 802 801 801 801 801 802 802 802 801 801 800 799 797 796 796 795 794 793 792 791 789 789 787 785 784 783 781 779 778 776 773 771 769 767 764 762 759 756 754 751 748 746 744 743 741 739 737 736 735 733 731 730 728 726 725 723 721 720 719 718 717 715 714 714 714 714 713 713 713 713 713 713
795 796 796 798 801 801 801 802 803 802 800 800 800 801 801 800 801 801 801 801 801 801 801 801 800 798 797 796 796 795 795 794 793 792 790 789 787 785 784 783 781 780 778 777 774 772 770 768 766 763 761 758 755 753 750 747 745 743 741 739 738 736 734 733 731 730 728 726 725 723 722 721 719 718 717 716 714 713 713 713 713 712 711 711 711 711 711
794 795 797 801 804 803 802 802 803 801 800 800 800 800 800 800 800 800 800 800 800 800 800 800 798 797 797 796 795 795 794 793 792 791 789 788 786 784 783 782 780 779 777 775 773 772 769 767 765 762 759 757 755 752 749 746 744 742 740 738 736 734 732 731 729 728 726 725 723 722 720 719 718 717 716 715 714 713 712 712 712 711 710 710 709 709 709
796 795 796 801 804 803 801 800 800 800 800 800 800 800 800 799 799 800 800 800 800 800 799 799 797 796 796 795 795 794 793 792 791 790 788 787 785 784 782 781 779 778 776 774 772 771 768 766 764 761 759 756 754 751 748 746 743 741 739 737 734 732 730 729 728 727 725 724 722 721 719 718 717 716 715 714 713 712 711 711 712 711 710 709 709 708 707
796 796 796 798 799 799 799 799 800 800 800 800 800 799 799 800 801 801 801 800 800 799 798 797 797 796 795 795 794 793 792 792 791 789 788 786 784 783 781 780 778 776 775 773 771 769 767 765 763 760 758 756 753 750 748 745 743 741 738 736 734 731 729 728 727 725 724 723 721 719 718 716 715 714 714 713 712 711 710 710 710 710 710 709 708 707 707
796 796 797 798 798 799 800 801 801 801 801 800 800 800 801 801 802 803 802 800 800 799 797 796 796 796 795 795 794 792 792 791 790 788 787 785 783 782 780 779 777 775 774 772 770 768 767 764 762 760 758 755 752 750 747 744 742 740 737 735 733 730 728 727 726 724 723 721 719 718 716 715 714 713 712 712 710 709 709 709 709 709 709 708 708 708 708
797 797 798 799 799 800 801 802 802 802 801 800 801 802 802 802 803 803 802 800 799 798 797 796 796 795 794 793 792 791 791 790 789 788 786 784 783 781 779 778 777 775 773 772 770 768 766 764 762 760 757 754 752 749 746 744 742 739 736 734 731 729 727 725 724 723 722 720 718 716 715 713 712 712 711 711 710 709 708 707 707 707 707 708 708 709 708
799 800 800 800 801 801 802 802 802 802 802 801 802 803 803 803 803 802 801 799 798 797 797 796 795 794 793 792 791 791 790 789 788 786 785 783 782 780 779 778 777 775 774 772 770 768 766 764 761 759 757 754 752 748 746 744 741 737 735 732 729 727 726 724 723 722 720 718 717 715 713 712 712 711 710 710 709 708 707 707 706 706 706 707 707 707 707
801 802 802 802 802 802 803 802 802 803 803 802 802 802 802 801 801 800 799 798 797 796 796 795 794 793 792 791 790 789 789 788 786 785 784 782 780 779 778 777 776 775 773 772 770 768 766 763 761 759 756 753 751 748 745 743 740 737 735 731 729 727 725 723 722 720 718 717 716 714 713 712 711 710 709 709 708 707 707 706 706 706 706 706 706 706 706
799 800 801 801 801 802 803 802 802 802 802 802 801 801 800 800 800 799 798 797 796 796 795 794 793 792 791 791 790 788 787 787 785 784 783 781 780 779 778 777 775 774 773 771 769 767 765 763 761 758 755 752 750 747 744 741 739 737 734 731 728 726 724 722 720 719 717 715 714 713 712 711 710 709 709 708 707 707 707 706 706 706 706 706 707 708 709
797 798 798 798 799 800 800 800 801 801 801 801 801 800 799 799 799 798 797 796 796 795 794 793 793 792 791 790 788 787 786 786 785 783 782 780 779 778 777 776 775 773 772 770 769 767 765 762 760 758 754 751 749 746 743 740 738 736 733 730 728 725 723 721 720 718 716 715 713 712 712 711 710 709 708 707 707 706 706 706 707 707 707 708 709 710 711
796 798 798 798 798 799 799 799 800 800 800 800 800 799 799 798 797 797 796 795 794 794 793 792 792 791 789 789 788 786 786 785 784 782 781 779 778 778 776 775 774 772 771 769 768 766 764 762 760 757 754 751 748 745 743 740 738 735 732 730 727 725 723 721 719 718 717 715 714 713 712 711 710 709 708 707 705 704 703 703 704 705 707 708 708 709 710
796 797 798 798 798 799 799 799 799 799 799 799 799 798 798 797 796 796 795 794 793 793 792 791 790 790 789 788 787 786 785 784 783 781 780 779 778 777 776 775 773 772 770 769 767 765 764 762 759 756 754 750 747 745 742 740 737 734 731 729 727 725 723 721 719 718 716 715 714 713 712 711 710 709 707 706 704 703 702 701 701 702 703 704 706 708 709
796 796 798 798 798 798 799 799 799 799 798 798 798 797 797 796 795 795 794 793 793 792 791 790 790 789 788 787 786 785 784 783 782 780 779 778 777 776 775 774 773 772 770 769 767 765 764 761 758 756 753 750 747 744 741 739 737 734 731 729 727 725 723 721 719 718 716 715 714 713 711 711 710 708 707 706 705 704 703 703 702 703 703 704 706 709 710
796 797 798 797 797 798 798 798 798 798 797 797 797 796 796 795 794 794 793 793 792 791 790 789 789 788 787 786 785 784 783 782 781 780 778 777 777 776 775 774 773 771 770 769 767 765 764 761 758 755 752 749 747 744 741 739 736 733 731 729 727 725 724 722 720 718 716 715 713 712 711 710 709 708 707 707 706 705 705 704 704 704 705 706 708 709 710
796 797 797 797 797 797 797 797 797 796 796 796 796 795 795 794 793 792 792 791 791 790 789 788 788 787 786 785 784 783 782 781 780 779 778 777 776 776 775 774 773 771 770 769 767 766 764 761 758 755 753 749 746 743 741 738 736 733 731 729 727 726 724 722 721 719 717 715 713 712 711 710 709 708 708 707 707 707 707 706 706 706 706 707 708 708 708
796 796 796 796 795 795 795 796 796 795 795 795 795 794 794 793 792 791 790 790 789 789 788 787 787 786 785 784 784 783 782 781 780 779 777 777 776 775 775 774 772 770 769 768 767 766 764 761 758 756 753 750 747 744 740 738 736 734 731 730 728 726 725 723 722 720 718 716 714 713 711 711 711 710 709 709 709 709 709 708 708 707 708 708 708 708 708
795 795 795 794 794 794 794 795 794 794 795 795 794 793 792 792 791 790 789 789 788 788 787 787 786 785 784 784 783 782 781 780 779 778 777 776 776 775 774 773 771 770 769 768 767 765 763 761 759 757 754 751 748 744 740 737 735 734 732 730 729 727 726 724 723 721 719 717 715 714 713 712 712 711 711 711 711 711 711 711 711 710 710 710 710 710 711
794 794 793 793 793 793 793 793 793 793 794 793 792 792 791 790 789 789 788 788 787 787 786 786 785 784 783 783 782 781 781 780 779 778 777 776 775 775 774 773 771 770 769 768 767 765 763 761 760 758 756 752 749 745 741 737 736 734 733 731 730 728 727 725 724 722 720 718 716 715 714 714 713 713 713 713 713 713 714 714 714 714 713 713 712 713 714
793 793 792 792 792 792 792 793 792 792 792 791 791 790 790 789 788 788 787 787 786 786 785 785 784 783 783 782 781 781 780 779 778 778 777 776 775 775 774 773 771 770 769 768 767 765 764 762 760 759 756 753 750 746 742 739 737 736 734 732 730 729 728 726 725 723 722 720 719 717 716 715 715 715 715 715 716 716 716 717 717 717 716 715 715 715 716
792 791 791 791 791 791 792 791 791 791 791 790 789 789 788 787 787 787 786 786 785 785 784 784 783 782 782 781 780 780 780 779 778 777 777 776 775 775 773 772 771 770 769 768 767 765 764 763 761 759 757 754 751 747 743 741 739 737 736 734 732 730 729 728 727 725 724 723 721 720 719 718 718 718 718 719 719 719 720 720 720 720 719 719 719 719 720
790 790 790 790 790 790 790 790 789 790 789 788 788 788 787 786 786 785 785 785 784 783 783 783 782 782 781 781 780 779 779 778 777 777 776 775 775 774 773 772 771 770 769 768 767 765 764 763 761 760 758 755 752 749 745 743 741 739 737 735 734 732 731 731 729 728 727 726 725 723 723 722 722 722 722 722 722 723 723 723 723 723 724 725 724 724 724
789 789 789 788 788 788 788 788 788 788 788 787 787 786 785 785 785 784 784 783 783 782 782 782 781 780 780 780 779 778 778 777 776 776 775 775 774 774 773 772 771 770 769 768 767 766 765 764 762 761 759 757 754 751 748 746 744 742 739 738 736 735 734 733 731 730 730 729 728 727 727 726 725 726 725 725 725 726 726 726 726 727 728 729 728 727 727
788 787 786 786 787 786 786 786 786 786 786 786 785 785 784 784 783 783 782 782 782 781 781 781 780 779 779 778 778 777 777 776 776 775 775 774 774 773 772 771 770 769 769 768 767 766 765 764 763 762 760 758 756 753 751 749 747 745 742 741 739 738 737 735 734 733 733 732 731 731 730 729 729 729 729 728 729 730 730 729 729 730 730 731 731 731 732
787 785 785 785 785 785 785 785 784 784 784 784 783 783 783 782 782 782 781 781 780 780 780 779 779 778 777 777 777 776 776 776 775 775 774 774 773 773 772 771 770 769 769 768 767 766 766 765 764 763 761 759 757 755 753 752 750 748 746 744 742 741 740 739 738 737 736 735 734 733 733 733 733 733 733 733 734 735 735 734 734 734 734 735 736 736 737
785 784 784 783 783 783 783 783 782 782 782 782 782 781 781 781 781 780 780 779 779 779 779 779 778 777 777 776 776 776 775 775 775 774 774 774 773 772 772 771 770 769 769 769 768 767 766 766 765 764 763 761 759 757 756 755 753 752 750 748 746 745 744 743 742 740 739 739 738 737 737 737 737 737 737 737 738 738 738 738 738 739 739 740 740 740 741
783 782 782 781 781 780 780 780 780 780 780 780 780 780 780 779 779 779 778 778 778 778 778 778 777 777 776 775 775 775 775 774 774 774 774 773 773 772 771 771 770 770 769 769 769 768 767 766 765 765 764 763 761 759 758 757 756 755 754 752 751 749 748 747 746 744 744 743 742 741 741 741 740 740 740 740 741 741 741 741 742 742 743 743 743 744 744
781 781 780 780 779 778 778 777 777 778 778 778 778 778 778 778 778 778 777 777 777 777 777 777 776 776 775 775 775 774 774 774 773 773 773 773 772 772 772 771 770 770 770 770 769 769 768 767 767 766 765 764 763 761 760 759 758 758 757 756 754 753 752 751 750 749 748 747 746 745 744 744 744 744 743 744 744 744 744 744 745 745 745 746 746 747 747